Location: StarGlider Observatory
(40.6275°N, 79.9767°W)
Time: 05:23:22

Tiangong 1 - Visible Passes

Search period start: 23 March 2018 00:00
Search period end: 02 April 2018 00:00
Orbit: 209 x 230 km, 42.7° (Epoch: 23 March)

Date Brightness Start Highest point End Pass type
(mag) Time Alt. Az. Time Alt. Az. Time Alt. Az.
30 Mar 1.5 06:28:31 10° SW 06:30:15 27° SSE 06:31:59 10° E visible
31 Mar 1.2 06:04:35 24° SSW 06:05:12 30° SSE 06:06:58 10° E visible
01 Apr 1.7 05:39:56 27° ESE 05:39:56 27° ESE 05:41:12 10° E visible
